Regional Weather Roundup
Issued by NWS

Home | Current Version | Previous Version | Text Only | Print | Product List | Glossary Off
Versions: 1 2 3 4 5 6 7 8 9 10 11 12 13 14 15 16 17 18 19 20 21 22 23 24 25 26 27 28 29 30 31 32 33 34 35 36 37 38 39 40 41 42 43 44 45 46 47 48 49 50

000
ASUS43 KDMX 290303
RWRIA

WEATHER ROUNDUP FOR IOWA
NATIONAL WEATHER SERVICE DES MOINES IA
1000 PM CDT SAT MAY 28 2016

NOTE: "FAIR" INDICATES FEW OR NO CLOUDS BELOW 12,000 FEET WITH NO
SIGNIFICANT WEATHER AND/OR OBSTRUCTIONS TO VISIBILITY.

* - THESE STATIONS ARE NOT NWS STATIONS...THUS NOT UNDER NWS
QUALITY CONTROL.  THEY ALSO DO NOT REPORT WEATHER SUCH
AS PRECIPITATION OR FOG.

IAZ001>003-012>014-020>022-031>034-043>046-290400-
   NORTHWEST IOWA

CITY           SKY/WX    TMP DP  RH WIND       PRES   REMARKS
CARROLL *      CLOUDY    64  59  82 W16G22    29.87R
CHEROKEE *     CLOUDY    62  62 100 W5        29.88R
DENISON *      PTCLDY    63  59  88 W12G21    29.88R
LE MARS *      CLOUDY    63  59  88 NW9       29.91R
ORANGE CITY *  RAIN      63  61  94 CALM      29.89R
SHELDON *      CLOUDY    63  61  94 N6        29.87R
SIOUX CITY     CLOUDY    63  58  83 NW9       29.91R
SPENCER        CLOUDY    61  59  93 NW6       29.86R
STORM LAKE *   CLOUDY    63  61  94 N8        29.87R
$$

IAZ055>058-069>071-079>083-090>094-290400-
   SOUTHWEST IOWA

CITY           SKY/WX    TMP DP  RH WIND       PRES   REMARKS
ATLANTIC *     PTCLDY    64  57  77 W7        29.91R
AUDUBON *      MOCLDY    64  57  77 W6        29.91R
CLARINDA *       N/A     64  61  88 MISG      29.95R
COUNCIL BLFS * CLEAR     64  57  77 NW10      29.93R
CRESTON *      CLEAR     64  57  77 SW6       29.93R
HARLAN  *      CLEAR     64  57  77 W13       29.95R
LAMONI         CLEAR     63  60  90 SW9       29.93R
RED OAK *      CLEAR     64  57  77 SW7       29.93R
SHENANDOAH *   CLEAR     66  63  88 SW7       29.94R
$$

IAZ047>049-059>061-072>074-084-290400-
   CENTRAL IOWA

CITY           SKY/WX    TMP DP  RH WIND       PRES   REMARKS
AMES           MOCLDY    66  58  75 SW20      29.85R
ANKENY *       PTCLDY    66  57  72 SW7       29.87R
BOONE *        PTCLDY    64  59  82 W18G28    29.84R
CHARITON *     CLEAR     66  59  77 S8        29.91R
DES MOINES     PTCLDY    68  56  65 SW10      29.87R
GRINNELL*      CLOUDY    64  61  88 SW12      29.88R
KNOXVILLE *    CLEAR     66  59  77 SW9       29.88R
MARSHALLTOWN   CLOUDY    64  58  80 SW8       29.84R
NEWTON *       CLEAR     64  63  94 SW9       29.87R
PELLA *        CLEAR     67  59  74 SW8       29.90R
PERRY *        MOCLDY    64  61  88 W13       29.87R
$$

IAZ004>006-015-016-023>025-035-036-290400-
   NORTH CENTRAL IOWA

CITY           SKY/WX    TMP DP  RH WIND       PRES   REMARKS
ALGONA *       CLOUDY    63  61  94 N8        29.83R
CLARION *      CLOUDY    64  61  88 SW9       29.82R
ESTHERVILLE    CLOUDY    62  61  96 N6        29.84R
FORT DODGE *   MOCLDY    64  57  77 CALM      29.82R
MASON CITY     CLOUDY    64  62  93 CALM      29.83R
FOREST CITY *  CLOUDY    59  59 100 CALM      29.81S
WEBSTER CITY * CLOUDY    63  61  94 SW12      29.81R
IOWA FALLS *   CLOUDY    66  59  77 S9G16     29.84R
$$

IAZ007>011-017>019-026>030-037>042-050>054-066-290400-
   NORTHEAST IOWA

CITY           SKY/WX    TMP DP  RH WIND       PRES   REMARKS
CEDAR RAPIDS   CLEAR     66  62  87 S9        29.87R
CHARLES CITY * CLOUDY    63  63 100 S7        29.83R
CLINTON *      CLOUDY    69  62  78 SW10      29.89R
DECORAH *      MOCLDY    63  61  94 CALM      29.83R
DUBUQUE        PTCLDY    64  61  90 SW7       29.87R
MONTICELLO *   PTCLDY    68  61  77 SW8       29.87R
OELWEIN *      PTCLDY    66  63  88 S8        29.85R
WATERLOO       CLOUDY    66  61  84 SW8       29.83R
$$

IAZ064-065-067-068-078-290400-
   EAST CENTRAL IOWA

CITY           SKY/WX    TMP DP  RH WIND       PRES   REMARKS
DAVENPORT      MOCLDY    70  59  68 SW12      29.90R
IOWA CITY      CLOUDY    68  60  75 S7        29.90R
MT. PLEASANT * CLEAR     68  64  88 SW6       29.93R
MUSCATINE *    CLOUDY    70  61  73 SW7       29.91R
QUAD CITIES    MOCLDY    72  60  66 SW9       29.89R
$$

IAZ062-063-075>077-085>089-095>099-290400-
   SOUTHEAST IOWA

CITY           SKY/WX    TMP DP  RH WIND       PRES   REMARKS
BURLINGTON     CLOUDY    71  61  70 SW10      29.92R
FAIRFIELD *      N/A    N/A N/A N/A MISG        N/A
FORT MADISON * CLOUDY    72  61  68 SW7       29.95R
KEOKUK *       CLOUDY    70  61  73 SW10      29.94R
OSKALOOSA *      N/A     66  59  77 S9        29.90R
OTTUMWA        PTCLDY    68  59  73 S9        29.91R
WASHINGTON *   CLEAR     66 -40   1 SW9       29.92R
$$

ABBREVIATIONS USED IN REMARKS
   TC - TEMPERATURES IN CELSIUS
  WCI - WIND CHILL INDEX
   HX - HEAT INDEX
  VSB - VISIBILITY
$$




USA.gov is the U.S. government's official web portal to all federal, state and local government web resources and services.